Regional Weather Roundup
Issued by NWS Raleigh/Durham, NC

Home | Current Version | Previous Version | Text Only | Print | Product List | Glossary On
Versions: 1 2 3 4 5 6 7 8 9 10 11 12 13 14 15 16 17 18 19 20 21 22 23 24 25 26 27 28 29 30 31 32 33 34 35 36 37 38 39 40 41 42 43 44 45 46 47 48 49 50
000
ASUS42 KRAH 292110
RWRRAH
NORTH CAROLINA WEATHER ROUNDUP
NATIONAL WEATHER SERVICE RALEIGH NC
400 PM EST THU JAN 29 2015

NOTE: "FAIR" INDICATES FEW OR NO CLOUDS BELOW 12,000 FEET WITH NO
SIGNIFICANT WEATHER AND/OR OBSTRUCTIONS TO VISIBILITY.

NCZ001-053-055-056-065-067-292200-
WESTERN NORTH CAROLINA

CITY           SKY/WX    TMP DP  RH WIND       PRES   REMARKS
ASHEVILLE      SUNNY     50  25  37 S13       30.05S
JEFFERSON      CLOUDY    41  23  48 SE7       29.98F
MORGANTON      MOSUNNY   47  28  46 CALM      30.12F
HICKORY        MOSUNNY   47  23  38 S12       30.07F
RUTHERFORDTON  MOSUNNY   52  24  33 S7G16     30.09F
MOUNT AIRY     PTSUNNY   47  26  43 S9        30.08F
BOONE          SUNNY     39  24  53 S6G18     30.01F
$$

NCZ021-022-025-041-071-084-088-292200-
CENTRAL NORTH CAROLINA

CITY           SKY/WX    TMP DP  RH WIND       PRES   REMARKS
CHARLOTTE      CLOUDY    50  23  34 S12       30.13F
GREENSBORO     PTSUNNY   47  29  49 S12       30.09F
WINSTON-SALEM  PTSUNNY   47  22  37 S10G18    30.10F
RALEIGH-DURHAM LGTSLEET  46  16  29 SW10      30.16F
FORT BRAGG     MOSUNNY   50  17  26 S8        30.18F
FAYETTEVILLE   MOSUNNY   51  17  26 SW12      30.20F
BURLINGTON     CLOUDY    44  24  45 S6        30.11F
LAURINBURG     MOSUNNY   52  18  26 SW9       30.20F
$$

NCZ011-015-027-028-043-044-047-080-103-292200-
NORTHEASTERN NORTH CAROLINA

CITY           SKY/WX    TMP DP  RH WIND       PRES   REMARKS
ROCKY MT-WILSO MOSUNNY   47  16  29 S9        30.19F
GREENVILLE     MOSUNNY   46  16  29 SW8       30.21F
WASHINGTON     CLOUDY    46  15  29 SW5       30.21F
ELIZABETH CITY CLOUDY    40  12  32 SW6       30.22F
MANTEO         CLOUDY    39  23  52 S6        30.23F WCI  35
CAPE HATTERAS  CLOUDY    39  24  55 NW6       30.24F WCI  35
$$

NCZ078-087-090-091-093-098-101-292200-
SOUTHEASTERN NORTH CAROLINA

CITY           SKY/WX    TMP DP  RH WIND       PRES   REMARKS
LUMBERTON      MOSUNNY   52  19  27 SW10      30.21F
GOLDSBORO      MOSUNNY   49  18  29 S5        30.19F
KINSTON        MOSUNNY   48  16  27 SW8       30.22F
KENANSVILLE    CLOUDY    49  13  24 SW5       30.22F
NEW BERN       CLOUDY    49  18  29 SE3       30.23F
CHERRY POINT   PTSUNNY   46  22  38 S8        30.24F
BEAUFORT       PTSUNNY   43  26  51 SW8       30.25S
JACKSONVILLE   CLOUDY    47  20  34 S8        30.22F
WILMINGTON     PTSUNNY   48  26  42 S9        30.23F
$$



USA.gov is the U.S. government's official web portal to all federal, state and local government web resources and services.